This demonstration page uses our WeatherBlox Daily Observations layout. Learn more.

Left ArrowRight Arrow

Hourly Observations for January 14, 2016

Temp ( °F °C ) Dew Point ( °F °C ) Humidity (%) Winds ( mph kmh ) Pressure ( in mb ) Visibility ( mi km ) Precip ( " mm )
12:54 am 00:54 Clear 40 4.4 27 -2.8 60 60 SSW 12 19 29.70 1006 10 16 0.00 0.00
1:54 am 01:54 Clear 39 3.9 27 -2.8 62 62 SSW 12 19 29.67 1005 10 16 0.00 0.00
2:54 am 02:54 Clear 39 3.9 27 -2.8 62 62 SW 10 17 29.65 1004 10 16 0.00 0.00
3:54 am 03:54 Clear 37 2.8 26 -3.3 65 65 S 6 9 29.65 1004 10 16 0.00 0.00
4:54 am 04:54 Clear 33 0.6 26 -3.3 75 75 S 8 13 29.63 1004 10 16 0.00 0.00
5:54 am 05:54 Clear 32 0 26 -3.3 79 79 S 8 13 29.63 1003 10 16 0.00 0.00
6:54 am 06:54 Clear 32 0 26 -3.3 79 79 S 10 17 29.60 1003 10 16 0.00 0.00
7:54 am 07:54 Sunny 32 0 26 -3.3 79 79 S 5 7 29.61 1003 10 16 0.00 0.00
8:54 am 08:54 Sunny 35 1.7 28 -2.2 76 76 SSW 7 11 29.60 1002 10 16 0.00 0.00
9:54 am 09:54 Sunny 39 3.9 29 -1.7 67 67 S 7 11 29.57 1001 10 16 0.00 0.00
10:54 am 10:54 Sunny 43 6.1 29 -1.7 58 58 SW 9 15 29.56 1001 10 16 0.00 0.00
11:54 am 11:54 Sunny 47 8.3 29 -1.7 50 50 SW 12 19 29.53 1000 10 16 0.00 0.00
12:54 pm 12:54 Sunny 50 10 28 -2.2 43 43 WSW 12 19 29.50 999 10 16 0.00 0.00
1:54 pm 13:54 Sunny 51 10.6 28 -2.2 41 41 W 9 15 29.47 998 10 16 0.00 0.00
2:40 pm 14:40 Hazy 54 12 28 -2 38 38 WSW 9 15 29.47 998 3 4 0.00 0.00
2:47 pm 14:47 Mostly Sunny 53 11.7 27 -2.8 37 37 WSW 13 20 29.44 997 10 16 0.00 0.00
2:54 pm 14:54 Mostly Sunny 53 11.7 28 -2.2 38 38 WSW 13 20 29.46 998 10 16 0.00 0.00
3:54 pm 15:54 Sunny 52 11.1 28 -2.2 40 40 WSW 9 15 29.47 998 10 16 0.00 0.00
4:54 pm 16:54 Sunny 49 9.4 30 -1.1 48 48 WSW 7 11 29.49 999 10 16 0.00 0.00
5:54 pm 17:54 Clear 45 7.2 31 -0.6 58 58 W 6 9 29.51 999 10 16 0.00 0.00
6:54 pm 18:54 Clear 40 4.4 31 -0.6 70 70 Calm 29.53 1000 10 16 0.00 0.00
7:54 pm 19:54 Clear 41 5 29 -1.7 62 62 NW 12 19 29.55 1001 10 16 0.00 0.00
8:54 pm 20:54 Clear 41 5 31 -0.6 67 67 NW 10 17 29.55 1001 10 16 0.00 0.00
9:54 pm 21:54 Clear 39 3.9 31 -0.6 73 73 NW 7 11 29.55 1001 10 16 0.00 0.00
10:54 pm 22:54 Clear 38 3.3 32 0 79 79 NW 7 11 29.56 1001 10 16 0.00 0.00
11:54 pm 23:54 Clear 36 2.2 31 -0.6 82 82 W 6 9 29.57 1001 10 16 0.00 0.00

Powered by AerisWeather